Location: Forst
(46.9333°N, 15.4333°E)
Time: 20:38:03
(UTC+00:00)

Tiangong - Pass Details

Date: 28 September 2021
Orbit: 382 x 385 km, 41.5° (Epoch: 15 October)

Event Time Altitude Azimuth Distance (km) Brightness Sun altitude
Exits shadow 03:36:28 12° 200° (SSW) 1,278 3.4 -13.8°
Maximum altitude 03:38:15 18° 161° (SSE) 1,028 3.3 -13.5°
Drops below altitude 10° 03:40:25 10° 117° (ESE) 1,381 4.7 -13.2°
Sets 03:42:58 0° 96° (E) 2,252 6.5 -12.7°
